#timestamp,LO_Frequency,Hit 
1503910815.8,286046996.6,N
1503910835.6,286046996.8,N
1503910855.4,286046996.6,N
1503910875.3,286046999.0,N
1503910895.1,286047000.1,N
1503910896.0,286047000.1,N
1503910915.8,286047002.1,N
1503910935.7,286046999.1,N
1503910955.5,286046998.9,N
1503910975.3,286047002.4,N
1503910995.2,286046998.3,N
1503911015.9,286046999.5,N
1503911035.7,286046997.8,N
1503911055.5,286046998.7,N
1503911075.4,286047002.7,N
1503911095.2,286047002.5,N
1503911115.0,286046999.4,N
1503911115.9,286046999.4,N
1503911135.8,286046998.1,N
1503911155.6,286047000.8,N
1503911175.4,286047000.7,N
1503911195.3,286047000.7,N
1503911215.1,286047002.5,N
1503911216.0,286047002.5,N
1503911235.8,286047000.3,N
1503911255.7,286046998.7,N
1503911275.5,286046995.0,N
1503911295.3,286046996.4,N
1503911315.2,286046993.6,P
1503911335.9,286046993.7,N
1503911355.7,286046993.5,N
1503911375.6,286046997.5,N
1503911395.4,286046994.9,N
1503911415.2,286046993.8,N
1503911435.1,286046993.8,N
1503911436.0,286046993.8,N
1503911455.8,286046996.3,N
1503911475.6,286046991.7,P
1503911495.5,286046996.5,N
1503911515.3,286047001.1,N
1503911535.1,286047002.4,N
1503911555.9,286047001.1,N
1503911575.7,286046999.9,N
1503911595.5,286046999.2,N
1503911615.3,286046996.8,N
1503911635.2,286046997.2,N
1503911655.0,286047000.7,N
1503911655.9,286047000.7,N
1503911675.7,286046996.5,N
1503911695.6,286046997.3,N
1503911715.4,286046997.4,N
1503911735.2,286046997.7,N
1503911755.1,286047000.7,N
1503911756.0,286047000.7,N
1503911775.8,286047002.3,N
1503911795.6,286046999.2,N
1503911815.5,286046997.6,N
1503911835.3,286046995.6,N
1503911855.1,286046995.3,N
1503911875.9,286046997.1,N
1503911895.7,286046998.9,N
1503911915.5,286046998.3,N
1503911935.3,286046997.4,N
1503911955.2,286046995.5,N
1503911975.0,286046997.0,N
1503911975.9,286046997.0,N
1503911995.7,286047001.2,N
1503912015.6,286047001.1,N
1503912035.4,286046998.4,N
1503912055.2,286047000.3,N
1503912075.1,286047001.8,N
1503912076.0,286047001.8,N
1503912095.8,286047001.2,N
1503912115.6,286046997.4,N
1503912135.5,286046993.4,P
1503912155.3,286046998.0,N
1503912175.1,286046997.6,N
1503912195.9,286046997.7,N
1503912215.7,286046995.5,N
1503912235.5,286046993.9,P
1503912255.4,286046995.3,P
1503912275.2,286046997.4,N
1503912295.0,286046997.3,N
1503912295.9,286046997.3,N
1503912315.8,286046996.8,N
1503912335.6,286046998.5,N
1503912355.4,286046998.1,N
1503912375.3,286046996.8,N
1503912395.1,286046997.5,N
1503912396.0,286046997.5,N
1503912415.8,286046996.2,P
1503912435.7,286046999.1,N
1503912455.5,286046999.1,N
1503912475.3,286046999.2,N
1503912495.2,286046999.2,N
1503912515.9,286046997.6,N
1503912535.7,286046996.9,N
1503912555.6,286046999.3,N
1503912575.4,286047000.7,N
1503912595.2,286047000.7,N
1503912615.1,286046994.9,P
1503912616.0,286046994.9,N
1503912635.8,286046997.5,N
1503912655.6,286046999.0,N
1503912675.5,286047000.4,N
1503912695.3,286046999.8,N
1503912715.1,286047001.0,N
1503912735.9,286047000.7,N
1503912755.7,286046999.2,N
1503912775.5,286046998.4,N
1503912795.3,286046999.1,N
1503912815.2,286046997.1,N
1503912835.0,286046999.2,N
1503912835.9,286046999.2,N
1503912855.7,286047000.0,N
1503912875.6,286047002.1,N
1503912895.4,286046999.0,N
1503912915.2,286046998.3,N
1503912935.1,286047001.2,N
1503912936.0,286047001.2,N
1503912955.8,286046999.5,N
1503912975.6,286046996.7,N
1503912995.5,286046996.8,N
1503913015.3,286046997.0,N
1503913035.1,286046998.2,N
1503913055.8,286046997.7,N
1503913075.7,286046997.7,N
1503913095.5,286046997.8,N
1503913115.3,286046999.3,N
1503913135.2,286046998.8,N
1503913155.0,286046998.7,N
1503913155.9,286046998.7,N
1503913175.7,286046998.0,N
1503913195.6,286046995.1,P
1503913215.5,286046998.7,N
1503913235.3,286046996.7,N
1503913255.1,286046997.5,N
1503913275.8,286046997.7,N
1503913295.7,286046996.4,N
1503913315.5,286046993.7,P
1503913335.3,286046997.3,N
1503913355.2,286046996.1,N
1503913375.0,286046996.6,N
1503913375.9,286046996.6,N
1503913395.7,286046998.7,N
1503913415.6,286047000.6,N
1503913435.4,286047000.7,N
1503913455.2,286047000.9,N
1503913475.1,286047000.8,N
1503913476.0,286047000.8,N
1503913495.8,286046998.8,N
1503913515.6,286046997.8,N
1503913535.5,286046996.9,N
1503913555.3,286046997.6,N
1503913575.1,286046999.4,N
1503913595.9,286046995.5,N
1503913615.7,286046993.7,P
1503913635.5,286046995.5,N
1503913655.4,286046995.5,N
1503913675.2,286046995.7,N
1503913695.0,286046997.9,N
1503913695.9,286046997.9,N
1503913715.8,286046997.6,N
1503913735.6,286046997.8,N
1503913755.4,286046997.9,N
1503913775.2,286046998.5,N
1503913795.1,286046997.3,N
1503913796.0,286046997.3,N
1503913815.8,286046997.5,N
1503913835.7,286046995.5,P
1503913855.5,286046998.5,N
1503913875.3,286046997.0,N
1503913895.1,286046997.6,N
1503913915.9,286046998.0,N
1503913935.7,286046995.1,P
1503913955.6,286046998.9,N
1503913975.4,286046997.3,N
1503913995.2,286046995.7,P
1503914015.1,286047000.5,N
1503914016.0,286047000.5,N
1503914035.8,286047003.8,N
1503914055.6,286047003.3,N
1503914075.5,286047003.5,N
1503914095.3,286047003.4,N
1503914115.1,286047004.1,N
1503914135.8,286047003.6,N
1503914155.7,286047003.8,N
1503914175.5,286047004.1,N
1503914195.3,286047002.6,N
1503914215.2,286047001.9,N
1503914235.9,286047001.5,N
1503914255.7,286047002.6,N
1503914275.6,286047000.4,N
1503914295.4,286047001.2,N
1503914315.2,286047000.4,N
1503914335.1,286046998.7,N
1503914336.0,286046998.7,N
1503914355.8,286046999.2,N
1503914375.6,286046999.4,N
1503914395.4,286046998.2,N
